Theta_e
349 352 355 356 356 356 356 355 355 354 354 354 354 354 353 353 353 353 351 351 352 352 352 352 352 351 351 352 352 352 352 351 351 351 351 350 350 350 349 348 348 347 347 347 347 347 347 348 349 349 349 349 349 349 348 348 346 346 346 344 346 347 346 346 347 348 349 349 348 348 347 344 344 345 345 345 344 343 342 341 341 339 339 339 341
348 353 355 356 356 355 356 355 354 354 354 354 355 354 354 353 353 353 353 351 351 351 351 352 352 352 351 351 351 351 351 351 351 351 350 350 349 350 350 349 348 348 347 347 346 346 344 346 347 348 348 348 348 348 348 347 346 345 345 345 346 346 345 345 345 346 347 347 347 347 346 347 346 346 345 343 342 342 341 339 338 336 336 338 339
351 354 354 355 356 356 355 354 354 355 353 354 354 354 354 353 353 353 353 353 352 352 352 352 352 353 352 352 351 351 351 350 350 350 349 349 349 349 349 349 347 346 346 345 345 345 345 345 344 345 346 346 347 347 347 346 346 345 345 345 345 345 345 345 345 344 345 346 345 346 345 345 345 343 342 342 341 340 338 337 336 335 334 339 339
350 353 354 355 356 355 354 355 355 355 353 354 355 355 355 354 354 354 354 354 354 353 352 352 352 352 352 351 351 351 350 350 350 349 349 349 348 348 348 349 348 347 346 346 345 345 345 345 346 346 346 345 346 347 346 345 345 344 344 345 345 345 345 344 345 345 345 345 345 343 343 341 343 344 344 344 343 342 341 340 339 338 337 336 336
351 354 354 353 354 354 354 354 354 354 354 354 354 354 354 354 354 354 354 353 353 353 353 354 353 352 352 351 350 350 350 349 349 349 348 348 348 348 348 348 349 349 349 348 347 345 344 344 343 343 345 345 345 345 345 344 344 344 345 344 344 344 344 344 344 344 344 344 343 340 337 338 339 340 340 342 343 342 342 342 342 341 341 341 340
352 354 354 354 354 354 354 354 354 355 354 354 354 353 354 353 353 352 352 352 352 352 352 353 352 352 352 352 352 351 349 349 350 350 350 349 349 348 348 349 349 349 349 349 349 346 345 343 343 344 344 345 345 345 345 345 345 344 344 344 344 344 344 344 343 343 343 342 340 337 336 339 339 340 343 343 342 341 340 340 339 339 340 340 340
352 354 354 354 353 353 353 354 355 354 354 354 355 353 353 353 353 353 353 352 352 352 352 352 351 352 352 352 352 352 351 350 350 350 349 349 349 349 348 348 348 348 348 348 348 348 348 345 344 344 344 345 345 346 346 344 345 344 344 345 344 343 343 343 342 342 340 336 333 334 335 336 339 340 343 343 341 340 339 339 339 339 339 339 340
353 354 354 353 352 353 353 354 355 354 354 354 354 354 353 353 353 353 353 353 352 352 351 351 351 351 351 351 351 351 351 350 350 350 349 349 349 349 348 347 347 347 348 349 348 347 346 345 345 343 345 346 346 346 346 345 344 344 344 343 342 342 342 342 341 341 339 334 335 336 337 338 340 340 343 342 341 339 340 339 338 338 339 338 337
352 353 353 352 352 354 354 353 354 355 354 354 354 354 354 353 354 353 353 353 352 351 351 351 351 351 351 351 351 351 351 351 351 351 350 350 349 349 349 349 348 348 348 347 347 347 346 345 345 345 345 346 346 345 345 344 344 343 342 342 341 340 342 342 341 340 337 336 335 335 336 337 340 340 340 340 340 340 339 338 338 338 338 338 338
351 353 353 352 352 353 353 353 354 354 354 354 354 354 354 354 353 353 352 352 352 351 350 350 351 351 350 350 349 350 350 351 351 351 351 350 351 350 349 349 348 349 348 347 347 346 346 345 345 345 346 345 344 343 344 343 343 343 342 340 340 342 342 342 341 340 335 335 335 336 341 341 337 337 337 338 339 337 336 337 338 335 336 338 338
350 352 353 351 352 352 352 352 354 354 354 354 354 353 353 353 353 353 352 352 352 351 350 350 350 350 350 349 349 349 350 350 350 351 351 351 350 350 349 348 348 348 348 347 346 346 346 346 346 344 343 344 344 343 344 344 343 342 340 341 342 342 341 342 338 334 335 334 335 338 341 342 337 338 338 338 338 338 338 337 340 342 340 337 335
350 352 352 351 354 351 352 352 354 354 354 354 354 353 353 353 353 353 353 352 351 350 350 350 350 349 349 349 349 349 349 350 351 351 351 351 350 349 349 348 347 347 347 347 347 346 346 347 347 346 346 345 344 343 343 343 342 341 341 342 342 342 341 340 333 334 334 335 338 337 336 335 336 337 339 338 337 337 337 337 339 340 340 340 340
349 351 352 351 350 351 352 352 353 354 354 354 353 353 353 353 353 353 353 351 351 351 350 350 350 349 350 349 349 349 349 350 349 350 350 350 349 349 349 348 347 347 347 347 347 346 345 346 346 345 345 344 344 343 342 342 341 340 341 342 343 341 341 338 333 334 335 335 337 335 333 335 338 340 339 338 338 338 336 338 339 339 339 340 340
347 350 350 351 351 354 351 351 351 353 353 353 353 352 352 353 353 352 351 351 350 350 349 349 349 349 349 350 349 349 349 349 349 349 350 350 350 349 348 348 348 347 347 347 347 346 344 344 344 344 343 343 343 343 343 342 341 341 342 343 343 341 340 338 337 335 336 335 336 333 334 338 338 339 337 337 337 338 337 338 339 338 338 337 337
347 349 350 351 350 351 354 351 350 351 351 351 351 351 351 351 351 351 351 351 350 349 349 349 349 349 349 349 349 349 349 349 349 349 349 349 349 349 348 348 347 347 346 346 346 345 344 343 344 343 343 342 342 342 342 342 341 341 342 343 344 340 339 335 335 334 334 335 337 336 333 335 340 340 338 338 338 338 336 336 336 336 336 336 337
348 349 350 348 349 350 349 352 351 351 350 350 350 350 350 350 350 351 350 350 349 349 349 349 349 349 349 348 349 349 349 348 348 348 348 348 348 348 348 347 347 346 346 346 345 344 343 343 343 343 342 342 341 341 342 342 342 341 341 342 344 341 339 336 334 333 335 335 335 335 333 337 341 340 338 338 337 336 337 337 336 335 336 336 336
348 348 347 347 346 347 349 350 350 352 351 350 350 350 350 350 350 350 350 350 349 349 349 349 349 348 348 348 349 349 349 348 348 348 348 347 347 347 347 347 347 346 345 346 345 344 343 343 343 342 342 342 342 342 342 342 342 340 341 342 344 342 340 337 333 333 334 335 335 333 334 337 340 340 339 338 337 337 336 336 336 336 336 337 336
347 347 346 347 347 347 347 348 349 349 349 350 350 350 351 350 349 349 349 349 349 349 348 348 348 348 348 348 348 349 349 348 348 347 347 347 347 347 347 346 346 346 345 345 345 344 343 342 342 342 342 342 342 342 342 342 341 341 342 343 344 343 340 338 333 334 334 337 333 336 336 339 341 340 339 337 337 337 336 335 336 336 336 337 337
345 345 346 346 347 347 347 347 346 348 348 348 348 348 350 350 349 350 349 349 349 349 349 348 348 348 349 348 348 348 348 348 348 347 347 347 347 347 346 346 346 345 345 345 344 344 343 342 342 342 341 342 341 341 342 341 341 342 343 343 343 342 341 337 334 333 336 336 335 334 333 338 340 340 339 338 337 336 335 335 335 336 338 337 337
342 344 344 346 347 347 347 347 347 348 348 347 345 347 349 350 350 350 349 349 349 349 348 348 348 348 349 349 348 348 348 346 347 346 347 347 347 345 346 346 345 345 345 345 344 342 342 342 342 341 341 342 342 341 341 341 341 343 342 341 343 343 337 333 334 334 334 335 336 332 336 340 340 338 338 338 337 335 335 335 336 337 336 336 337
341 343 343 345 347 347 347 348 348 348 349 347 346 346 348 350 349 350 349 349 349 349 348 349 349 348 348 348 345 342 341 342 343 341 346 344 346 346 346 346 346 345 345 344 343 343 342 342 342 341 341 341 340 339 339 340 341 342 341 341 342 336 333 333 334 336 334 337 338 331 339 339 338 337 337 338 336 335 335 336 335 335 336 337 338
337 339 343 345 345 346 347 346 347 346 348 347 347 346 347 348 345 345 346 347 348 349 347 344 349 341 348 343 340 344 339 338 339 346 341 343 345 347 346 346 345 345 344 344 344 343 343 342 342 342 342 340 337 329 330 335 338 341 340 337 333 333 333 333 333 334 335 335 335 334 339 338 337 337 337 337 336 335 334 333 334 338 338 337 337
334 337 340 343 343 342 346 346 346 347 347 347 346 346 345 344 344 344 345 348 347 348 343 345 339 339 340 339 340 339 339 340 340 343 343 345 344 346 346 345 345 344 344 344 343 343 343 343 342 342 341 336 329 327 326 328 329 336 335 330 329 332 332 332 332 334 334 335 333 337 339 338 338 337 337 336 335 334 334 333 337 338 337 337 336
331 336 339 340 341 342 343 345 345 346 346 346 347 346 345 345 343 343 343 342 340 342 339 339 338 338 338 338 337 340 338 336 345 343 345 338 339 345 346 345 345 344 343 344 343 343 342 342 340 342 335 330 328 327 327 328 328 326 327 329 330 331 331 332 332 332 332 336 331 338 338 338 338 337 336 336 335 334 334 334 334 337 337 336 335
331 336 339 337 339 341 343 343 345 345 345 346 346 346 346 346 345 344 343 343 342 341 339 336 335 336 336 337 338 338 334 334 332 335 333 333 332 332 335 338 337 336 341 334 334 335 335 332 333 334 330 330 328 327 328 329 328 328 328 329 330 330 332 332 332 331 332 335 335 339 339 339 338 337 336 335 335 335 334 333 333 332 334 335 334
333 335 337 338 340 341 342 342 343 343 345 345 345 346 347 345 345 345 344 342 342 341 338 333 332 333 334 336 338 335 335 332 331 331 330 330 331 331 333 338 339 337 338 334 334 334 333 333 332 334 333 332 329 328 328 330 327 327 328 328 330 332 331 331 332 332 332 333 336 339 341 339 339 337 336 335 335 335 335 333 332 332 331 333 332
330 333 338 339 341 341 341 342 341 342 343 345 345 346 345 345 344 343 342 339 340 339 338 332 330 332 334 337 335 335 336 332 330 329 329 329 330 329 330 334 338 339 339 338 337 336 333 334 333 333 331 332 332 329 328 328 326 327 328 328 330 331 331 331 331 332 332 333 335 340 341 340 341 338 337 336 335 335 334 334 333 332 332 331 332
329 333 336 338 339 340 341 341 340 341 341 344 344 344 344 343 344 343 342 342 339 338 337 332 331 332 334 334 337 333 334 333 330 328 328 328 329 330 330 331 334 338 339 339 338 337 334 333 334 333 332 332 332 330 328 328 327 326 328 328 329 330 330 331 331 332 332 332 335 340 341 341 341 340 337 336 336 335 334 334 334 333 332 331 333
331 333 335 336 338 340 340 339 340 340 340 343 343 343 342 342 343 341 340 343 337 336 335 332 331 331 333 335 337 332 330 331 328 327 327 328 328 331 331 330 330 334 337 338 338 336 335 333 332 332 331 331 330 329 329 328 327 326 326 328 329 330 330 330 330 331 332 332 333 338 341 341 340 340 338 337 336 336 335 334 334 334 333 332 331
332 333 334 335 337 340 339 338 338 338 339 343 343 342 341 341 341 340 339 341 335 334 332 331 330 331 332 334 335 332 332 330 329 327 327 327 328 331 331 330 329 331 334 335 336 336 336 333 331 332 332 330 330 329 329 326 327 326 325 327 329 330 330 330 331 332 332 333 333 336 340 339 338 338 339 338 337 337 336 335 334 334 333 333 332
333 333 334 334 336 338 338 337 337 340 339 341 341 341 341 340 340 339 340 339 334 333 331 330 330 331 332 333 333 334 331 330 329 328 328 328 328 329 329 329 330 331 332 333 332 334 334 334 332 330 330 329 328 328 327 327 327 327 327 328 329 331 330 331 333 333 333 333 333 334 336 339 338 337 337 336 339 337 336 336 335 334 333 333 333
332 333 334 334 335 336 337 337 337 339 337 340 341 340 340 340 339 336 338 337 334 331 329 328 332 330 330 330 331 332 334 330 329 327 328 328 328 328 329 329 330 331 331 331 331 331 331 332 333 331 331 329 327 328 329 328 328 328 328 327 328 329 329 331 332 332 332 332 332 333 334 335 337 337 337 336 336 337 339 337 337 335 335 333 333
333 333 333 333 334 335 337 336 338 338 336 338 340 339 339 340 338 335 335 336 333 329 327 327 328 329 329 330 330 332 333 331 329 330 332 328 328 328 328 329 329 330 331 331 332 330 331 332 330 330 328 327 328 328 329 329 328 328 329 328 328 328 328 329 330 331 332 332 332 333 333 334 335 335 336 338 337 337 337 339 338 337 335 334 334
331 331 332 333 334 334 335 335 337 336 336 336 336 337 337 336 334 331 334 331 330 328 329 327 329 329 329 329 328 330 331 330 329 328 328 327 328 328 327 328 328 329 329 330 330 329 329 328 327 328 332 327 327 327 328 328 328 328 328 328 328 327 328 328 327 329 331 331 331 331 332 332 333 334 335 337 338 337 336 337 339 339 337 335 334
329 330 332 332 333 332 334 334 336 334 337 336 337 334 331 333 330 328 328 328 327 326 327 329 331 331 328 328 329 332 332 330 329 328 327 327 326 326 326 330 331 329 329 328 329 328 327 327 327 326 325 326 326 327 327 326 326 325 325 326 326 326 327 327 328 328 328 330 331 331 331 329 331 334 335 335 336 336 336 336 338 339 339 337 336
325 329 331 332 331 331 334 333 334 333 333 334 333 332 331 328 328 330 326 327 327 327 328 329 330 330 329 327 329 332 330 329 329 327 327 326 326 325 325 329 331 328 327 327 328 327 326 326 326 326 325 325 326 323 324 324 326 326 327 326 326 326 325 326 326 326 326 326 327 329 330 331 332 333 336 335 335 335 335 336 336 336 338 339 338
324 326 329 329 329 330 333 331 331 331 330 330 329 327 326 325 326 326 325 325 324 325 326 327 328 329 328 327 330 333 329 328 328 327 326 326 325 325 326 329 329 327 327 326 326 326 326 325 324 325 325 324 324 323 323 323 324 325 326 326 326 325 325 326 326 326 326 327 326 326 326 327 331 336 336 335 334 334 334 335 336 336 336 337 339
325 325 327 329 328 329 329 329 328 328 328 328 328 325 325 324 324 326 328 323 323 324 324 326 326 327 327 326 328 331 329 326 327 326 325 327 326 326 328 328 327 327 325 324 324 324 325 326 323 324 324 324 322 323 323 324 325 325 324 323 325 326 325 326 327 328 327 328 328 326 326 326 327 331 333 334 334 334 334 334 334 336 336 334 334
325 325 325 325 326 325 326 327 323 323 324 325 324 322 321 321 320 321 321 320 322 323 324 324 324 325 325 326 328 329 328 326 326 327 327 330 328 329 330 327 326 326 324 323 323 324 323 322 323 322 323 323 323 324 324 324 324 324 324 324 327 327 326 326 326 327 327 327 327 329 326 326 326 328 329 332 333 333 333 334 334 334 335 334 336
324 324 324 323 322 322 322 320 320 321 321 321 321 321 322 322 321 320 321 319 318 323 320 321 322 322 325 326 326 326 328 327 326 326 328 329 329 329 329 327 326 325 323 323 322 322 322 323 323 324 323 325 325 324 324 323 322 322 323 323 324 326 326 326 326 326 325 324 326 326 325 326 324 326 328 329 331 332 332 332 333 334 334 333 333
322 323 322 321 320 321 320 318 318 320 321 319 320 322 319 317 317 318 317 314 317 317 317 316 318 320 322 324 326 325 325 327 327 326 326 330 329 328 328 328 328 326 324 322 322 321 322 323 323 323 323 321 323 323 322 323 321 319 317 318 320 323 327 325 324 325 325 325 323 322 324 324 325 325 328 329 330 331 331 331 332 333 333 333 333
321 321 321 320 319 319 319 317 317 318 320 321 322 321 317 319 317 316 313 313 315 317 318 313 316 318 318 321 324 323 323 326 327 327 328 328 328 328 328 327 328 325 324 323 323 325 324 324 323 323 322 322 321 324 323 322 317 315 315 313 315 317 323 323 323 323 323 324 322 321 323 324 326 327 328 329 329 330 331 331 332 332 331 332 331
321 321 321 319 318 318 317 317 316 316 315 317 319 318 313 316 315 312 314 311 312 313 313 315 315 313 313 315 318 320 323 323 325 328 326 327 328 327 327 326 325 326 324 323 323 323 323 323 323 322 320 321 323 324 322 319 318 317 316 313 311 310 315 317 318 319 320 321 320 320 322 325 327 327 328 328 328 329 332 332 332 332 332 333 333
320 319 319 318 318 318 316 316 316 315 313 315 318 315 317 314 313 313 312 312 313 315 312 312 312 312 312 313 315 316 320 321 323 326 325 324 325 326 325 325 325 326 324 323 323 322 322 322 322 322 321 318 318 319 323 321 317 317 313 313 311 308 307 311 312 316 318 319 320 320 323 325 325 325 326 327 327 329 328 330 332 331 332 332 332
319 319 319 318 319 317 316 316 316 314 314 318 317 317 316 313 313 313 313 312 312 310 311 310 311 316 313 312 313 314 316 316 318 322 325 322 322 323 323 323 323 322 324 325 324 324 324 322 322 321 320 319 318 320 322 323 320 322 316 313 310 308 309 312 310 313 316 320 319 320 323 321 323 324 324 325 325 326 326 327 329 330 330 331 331
319 320 320 319 318 317 316 315 314 314 315 314 317 318 317 314 312 311 309 307 307 308 308 309 309 309 309 310 310 311 312 313 313 317 323 323 321 322 323 323 322 322 323 323 323 324 323 324 322 322 319 319 321 321 319 322 321 320 319 317 316 312 311 314 311 308 314 316 317 319 315 314 319 321 320 317 317 319 322 325 326 326 328 331 332
319 320 319 319 318 317 316 315 315 314 314 314 317 318 314 314 314 313 311 310 309 307 306 307 308 308 308 308 307 308 308 310 311 314 318 321 319 320 321 322 323 322 324 324 324 324 323 324 322 321 320 319 320 318 318 319 318 319 319 320 320 317 316 314 310 307 309 313 314 314 313 310 313 312 312 312 315 318 320 322 321 322 323 325 328
320 320 319 319 317 316 315 315 315 316 314 315 316 316 314 312 311 310 311 309 310 309 308 308 309 311 308 307 307 306 308 309 310 312 315 318 316 316 318 321 322 322 324 322 322 322 323 324 324 321 319 320 319 319 318 320 319 317 318 317 318 318 317 316 314 313 308 308 311 313 312 309 310 310 311 312 313 313 312 313 312 311 314 317 320
321 320 320 319 318 316 316 314 315 315 312 314 316 315 316 313 312 311 311 309 309 310 311 311 310 308 306 305 306 306 307 308 309 311 312 315 318 313 315 317 319 320 320 316 317 320 320 318 318 318 319 317 318 317 319 318 317 316 316 314 312 310 309 313 314 312 311 304 306 304 305 307 308 309 309 310 310 310 310 310 312 310 311 312 316
321 322 320 319 318 316 315 314 315 314 313 314 315 314 314 313 311 311 310 310 311 309 309 308 307 306 305 304 305 306 306 307 308 309 310 311 312 314 313 314 314 316 317 313 312 312 312 313 314 316 315 314 314 317 318 315 313 314 317 314 311 306 306 305 306 307 306 307 304 304 304 302 303 307 309 309 308 308 308 309 309 308 309 310 312
319 320 320 319 318 316 314 313 315 314 313 313 313 313 312 312 312 311 310 310 309 309 308 306 306 305 305 304 304 305 305 306 308 308 308 310 312 314 311 311 314 317 313 310 310 310 309 310 309 309 309 310 310 310 309 309 308 307 308 311 308 306 306 304 303 304 303 301 300 300 300 302 302 305 307 308 309 306 306 308 307 308 309 309 310
Wind_Speed
8 11 9 13 13 13 14 15 16 17 16 15 15 15 15 15 17 18 17 16 17 18 18 18 17 17 17 17 17 17 16 16 16 16 16 16 17 16 16 15 16 16 16 15 15 14 13 13 13 13 13 13 13 14 15 15 15 14 14 13 15 14 14 14 15 17 16 15 15 15 15 13 15 15 16 16 16 15 15 15 12 10 8 13 16
12 10 9 11 14 13 15 15 17 17 16 16 14 15 15 15 15 17 18 17 17 17 18 18 17 17 17 16 16 16 16 16 16 16 16 16 16 16 16 16 17 17 16 16 15 14 14 13 13 13 13 13 13 14 14 14 14 14 14 14 14 13 13 13 13 15 16 16 15 15 15 16 15 15 16 15 15 15 15 15 14 6 7 14 16
10 10 9 12 15 14 14 16 17 17 16 16 15 15 15 15 15 15 17 17 17 17 17 17 17 16 17 17 16 16 16 16 16 16 16 16 16 16 16 16 16 16 16 15 15 15 14 12 13 13 13 13 13 13 14 14 14 14 14 13 13 13 13 12 12 12 14 15 15 15 16 15 15 15 15 15 15 14 14 14 13 10 10 15 14
13 9 9 12 16 14 15 15 16 17 16 15 14 14 14 14 14 13 12 12 14 16 16 15 15 15 15 16 16 16 16 16 16 16 16 16 15 16 16 16 16 17 17 16 16 15 14 13 12 12 12 13 13 13 13 14 14 13 13 13 13 12 12 12 12 12 13 13 13 10 5 7 11 15 15 15 15 15 14 14 13 14 14 14 16
12 10 9 10 10 12 15 15 15 17 16 14 14 15 15 14 13 13 11 11 12 12 12 11 12 13 14 15 16 16 15 15 14 14 14 14 14 15 15 15 17 17 17 17 16 15 13 13 12 12 12 12 12 13 13 14 13 13 13 13 13 13 12 12 11 12 12 12 10 6 5 6 6 13 15 15 15 15 14 14 14 14 14 14 15
11 9 9 9 9 10 15 15 15 16 15 15 15 15 15 15 16 15 13 12 12 12 12 11 11 12 13 14 14 14 14 14 14 13 12 13 12 13 14 15 15 16 16 17 17 16 14 13 13 13 12 12 13 13 14 13 12 13 13 13 13 11 11 10 11 11 12 11 9 5 5 5 6 8 15 14 14 14 14 14 14 14 14 15 15
12 9 9 10 8 10 15 15 16 16 15 14 14 15 15 15 15 14 13 13 12 12 11 11 12 11 12 13 13 13 14 14 14 13 13 13 13 12 13 14 14 15 15 15 15 16 15 15 14 13 12 13 13 14 15 14 12 13 12 11 10 11 11 10 10 11 10 6 4 4 4 4 4 6 14 14 13 13 13 13 13 13 14 14 15
9 8 9 9 7 11 15 15 15 15 15 15 14 15 15 14 14 13 13 12 11 11 11 11 11 12 12 12 12 13 13 13 13 13 12 12 13 12 12 13 14 15 15 15 14 16 15 14 14 13 13 13 13 15 14 12 11 10 9 7 7 8 9 10 10 10 9 5 4 4 4 5 6 6 13 13 13 13 12 13 13 14 14 14 13
10 9 8 8 8 14 14 14 15 16 16 15 15 15 14 14 13 14 13 12 11 11 11 11 11 12 11 11 12 12 12 11 11 11 10 10 12 11 9 13 14 15 15 15 13 13 15 15 14 13 13 14 14 13 13 12 10 8 6 4 5 6 6 8 8 8 5 4 4 4 5 5 5 6 12 13 13 13 13 10 9 13 14 14 13
10 8 8 8 9 15 13 13 15 16 16 16 16 15 15 14 14 14 13 13 11 11 11 11 11 11 11 12 12 12 11 11 11 10 9 10 11 11 13 14 14 15 15 14 13 13 13 14 15 14 14 13 13 12 11 10 9 7 4 2 3 5 5 4 7 6 4 4 4 5 5 5 5 5 10 12 13 13 12 11 7 9 11 14 14
10 9 8 9 11 15 14 13 13 14 15 15 16 16 15 14 15 14 13 13 12 11 11 10 11 11 11 11 11 11 12 11 11 11 9 10 11 12 13 13 13 13 13 13 13 12 12 13 14 14 14 13 12 10 10 9 8 7 2 2 6 4 2 5 6 4 4 4 4 3 7 9 5 5 11 12 13 13 12 11 13 14 14 13 12
10 8 8 8 15 15 16 15 14 13 14 15 16 16 15 15 15 14 14 12 12 11 10 10 9 10 11 11 11 11 11 11 11 11 11 11 11 12 12 12 12 13 13 13 12 11 11 12 13 13 12 13 12 11 10 9 7 5 1 5 4 1 5 9 5 4 4 3 4 4 5 6 5 8 13 13 13 12 11 11 13 13 13 13 14
10 9 8 8 9 14 15 14 14 12 13 14 14 15 15 14 14 14 12 10 10 10 11 10 9 9 9 10 11 11 11 11 11 11 11 11 12 12 11 12 12 12 12 12 12 10 9 11 11 11 11 12 13 12 10 9 7 4 3 4 4 6 7 9 5 5 3 3 3 4 5 5 5 12 13 14 13 12 11 12 13 13 13 14 14
11 10 9 8 8 14 15 14 14 13 13 12 12 12 12 13 13 12 11 10 10 10 10 9 9 8 8 9 9 10 11 11 10 11 10 10 11 11 10 11 11 11 11 11 10 10 8 9 10 10 10 11 11 12 11 9 7 4 4 4 5 8 9 7 6 5 4 3 3 3 4 3 4 12 10 10 12 12 11 12 12 12 11 11 12
12 10 9 8 7 9 16 14 14 14 12 10 9 9 11 12 12 12 11 11 10 9 9 9 9 8 8 9 9 10 11 11 11 10 10 10 10 10 10 11 11 10 10 9 9 9 8 8 8 9 10 9 9 9 11 10 7 5 5 5 5 8 8 5 4 4 4 3 2 3 3 3 8 9 11 12 11 11 11 11 11 11 11 11 12
11 11 9 7 8 9 9 14 14 14 14 13 10 10 11 11 12 11 11 10 10 9 9 9 8 8 8 8 9 9 10 11 10 10 9 10 10 10 10 11 11 10 9 9 8 7 7 6 8 9 9 8 7 8 9 10 8 6 6 5 5 7 7 5 4 4 4 3 2 3 3 3 8 9 11 12 11 10 10 10 11 11 11 12 12
10 9 9 8 7 6 7 8 12 17 14 12 11 12 11 12 12 11 11 11 10 10 9 9 8 8 8 8 8 9 9 10 10 10 9 9 9 10 10 10 10 9 9 9 8 8 6 6 8 8 8 8 7 6 8 9 9 6 5 4 4 5 7 6 4 4 3 2 2 3 3 4 8 9 11 12 12 11 10 10 10 11 11 11 12
9 9 9 9 7 6 7 7 9 10 10 12 12 12 11 11 11 11 11 10 10 9 9 8 7 7 7 8 8 8 9 9 9 9 9 9 9 9 10 10 9 9 9 9 8 7 7 6 7 8 7 7 7 8 7 7 8 7 5 4 4 6 8 7 4 3 3 2 2 1 1 1 6 9 11 10 11 12 11 10 11 11 11 11 12
8 8 7 8 8 6 9 7 7 8 10 7 7 9 13 11 11 11 10 10 9 9 9 7 7 7 6 7 7 9 8 8 8 8 9 9 10 10 9 9 9 9 8 8 7 7 6 5 6 7 7 7 8 8 7 5 6 6 5 5 5 7 9 5 3 3 2 2 1 1 0 1 5 9 10 11 11 11 10 10 10 10 10 10 10
6 6 6 5 8 6 6 6 7 7 8 7 7 7 12 13 11 11 11 10 9 8 8 7 7 7 7 7 7 6 7 6 9 6 8 9 8 6 9 8 9 8 8 7 6 5 4 4 5 8 7 8 10 10 8 6 5 3 4 6 8 9 5 4 4 3 2 2 1 1 2 3 4 8 9 10 10 9 9 9 10 10 9 9 10
4 5 5 6 8 7 8 5 6 8 8 6 6 7 9 12 10 12 12 11 9 10 9 8 7 6 5 5 5 4 4 3 4 3 6 3 6 7 8 8 7 7 7 7 6 5 4 3 4 7 8 8 8 8 7 8 7 5 3 4 8 5 5 4 4 3 3 2 2 1 2 3 4 7 8 8 9 9 8 10 8 8 8 8 10
5 6 6 6 7 8 8 6 6 8 7 5 5 5 6 9 5 6 6 8 9 9 7 4 5 3 6 4 4 3 4 4 3 4 2 2 4 7 7 6 6 6 6 6 5 4 3 3 4 6 7 7 8 4 4 5 7 6 5 5 3 4 5 4 4 3 3 2 2 2 3 4 6 7 7 8 8 8 6 7 8 8 9 9 9
7 5 6 7 5 3 6 7 7 7 7 5 4 3 5 4 4 5 5 7 6 6 4 4 3 3 3 3 3 4 4 3 2 2 2 3 3 5 5 6 5 5 5 5 5 3 2 2 4 6 7 6 4 3 4 3 3 5 5 4 2 4 4 4 4 3 3 2 2 3 4 4 6 6 7 7 7 7 7 6 9 8 8 8 8
6 5 6 5 4 3 6 7 7 6 5 4 4 4 4 4 4 4 4 4 3 3 3 4 3 3 4 3 4 4 4 3 4 5 3 2 2 3 4 5 4 4 4 3 3 3 2 2 2 6 4 3 3 4 4 3 4 3 3 3 2 3 4 4 3 3 3 3 3 4 5 5 6 6 6 7 7 7 6 6 7 9 9 7 6
1 5 8 7 5 6 5 7 5 5 5 5 5 5 5 5 4 4 4 3 4 4 4 3 3 4 4 4 4 3 3 3 3 3 3 3 3 3 3 4 3 2 3 3 2 2 3 3 4 4 3 3 4 4 4 4 3 4 3 3 2 3 3 3 3 3 3 2 3 4 5 4 4 5 6 6 7 7 6 6 5 5 7 8 6
5 4 9 8 6 6 6 5 4 4 5 4 4 6 6 5 5 5 5 4 4 4 3 3 3 4 4 4 4 4 4 3 4 4 3 2 3 4 4 3 3 3 2 2 3 3 3 3 3 3 2 3 3 3 3 3 3 4 3 3 2 4 3 3 3 3 3 2 3 6 3 3 3 5 5 6 6 6 6 5 5 4 4 5 5
4 4 5 6 6 7 8 7 6 6 5 5 5 4 5 4 4 5 5 4 4 4 4 3 3 4 4 4 5 4 4 3 3 3 3 3 4 3 3 3 3 2 2 2 2 2 2 2 2 2 2 2 2 3 3 3 2 2 2 2 1 3 3 3 3 3 3 3 3 7 4 3 3 5 5 5 5 5 5 5 5 5 4 3 5
5 4 5 6 6 9 7 8 6 6 5 6 6 4 4 4 5 6 5 5 5 4 4 3 2 3 3 3 3 4 5 4 4 4 3 3 3 3 2 3 3 2 2 1 2 2 2 2 1 2 2 2 3 3 3 2 1 1 1 0 2 3 2 2 3 3 3 3 4 6 5 4 3 4 5 4 5 6 5 5 6 5 5 4 5
11 8 6 7 7 7 8 8 7 7 5 6 5 4 4 4 4 4 5 6 3 4 4 3 3 2 2 3 4 4 4 4 4 3 4 4 3 2 2 2 3 2 2 2 2 2 1 1 1 1 2 3 3 3 2 2 1 1 2 2 2 3 4 2 1 1 1 2 3 3 6 4 4 3 4 5 5 5 5 5 5 5 5 5 3
9 7 6 6 6 7 8 8 7 6 6 5 4 4 4 4 4 4 4 5 4 4 3 3 3 4 4 4 3 4 4 4 4 4 4 4 3 3 3 3 4 3 3 3 3 2 1 1 0 1 2 3 3 3 2 3 4 3 1 2 2 2 2 3 1 1 2 1 1 1 2 3 2 3 2 5 5 5 5 4 5 5 5 5 5
8 8 6 6 6 7 6 6 6 7 5 6 5 5 5 5 4 5 5 4 4 4 4 4 4 4 5 4 4 3 4 4 5 5 4 4 3 3 3 3 3 3 3 3 3 3 3 2 2 1 1 2 3 3 4 4 4 4 3 3 2 2 3 3 3 4 4 5 4 3 3 4 2 2 2 1 3 5 4 4 5 4 4 5 5
9 9 7 5 7 7 7 6 6 6 6 6 6 5 6 6 6 4 5 4 5 4 4 3 4 3 2 2 3 3 5 4 5 5 4 4 4 4 4 4 3 3 3 3 3 3 3 3 2 2 1 3 3 4 4 4 5 4 4 4 3 2 2 2 4 3 2 4 4 3 3 3 3 1 1 1 2 3 4 5 5 5 5 5 5
6 7 7 7 8 7 7 6 6 6 6 7 6 5 5 5 5 5 4 4 4 4 4 4 4 3 2 1 2 1 2 4 4 5 5 4 4 4 4 3 3 3 3 4 4 4 3 3 2 2 3 4 4 4 4 5 5 5 4 4 3 4 3 3 3 4 5 4 3 2 2 2 2 3 2 1 2 3 3 4 5 5 4 4 4
5 5 6 7 5 4 5 6 6 7 6 6 5 5 5 3 3 4 4 4 3 4 3 2 2 1 0 1 5 2 2 2 4 4 4 4 4 4 4 3 3 4 4 3 4 4 4 3 3 3 3 4 4 4 5 5 5 4 4 3 5 4 4 4 4 3 4 3 4 7 3 2 2 2 3 2 2 2 3 3 4 6 5 4 4
1 4 8 8 6 6 5 5 6 5 5 5 5 5 3 4 4 3 4 4 3 2 1 1 2 0 1 2 3 4 4 4 3 4 4 4 4 3 3 3 3 4 4 4 4 3 4 4 5 5 4 4 4 3 5 6 5 4 3 3 4 4 5 4 3 4 4 1 3 3 3 4 3 3 2 3 2 4 4 4 3 3 5 5 4
13 2 4 6 8 7 7 7 6 6 5 6 4 5 4 3 3 4 4 4 4 3 2 2 3 2 2 2 3 3 4 4 4 4 4 4 4 4 4 3 3 3 4 4 3 4 4 4 3 6 6 5 5 6 7 6 4 4 4 4 4 4 4 4 5 4 4 4 3 4 4 6 5 3 3 3 3 3 4 5 4 4 2 4 6
3 13 3 6 6 7 8 9 9 8 5 4 4 3 4 4 3 3 4 4 4 3 2 2 1 2 1 2 3 4 4 4 4 4 5 4 4 4 3 3 3 3 3 3 3 4 5 5 4 3 4 5 6 8 8 5 2 2 3 3 3 4 4 4 4 4 4 5 3 4 4 6 4 5 4 3 3 2 3 5 5 5 3 2 4
10 2 12 4 8 8 8 8 7 7 7 6 5 4 4 4 5 4 4 4 3 3 3 3 2 1 1 2 3 4 4 4 4 5 4 4 4 4 4 4 4 4 4 3 2 2 3 5 4 3 4 6 6 8 8 5 2 2 1 1 2 4 3 3 3 4 4 3 4 4 4 4 7 4 3 3 3 3 3 4 5 6 5 4 3
8 8 7 9 5 5 5 6 7 6 6 6 5 5 5 5 5 5 4 3 4 4 4 3 2 2 2 3 4 3 4 4 4 4 5 5 4 5 5 4 4 5 5 4 3 3 4 4 5 4 4 5 6 6 6 5 3 2 2 2 3 3 1 2 3 2 2 2 2 2 4 3 5 6 2 2 2 3 3 3 3 3 3 3 4
6 11 3 10 3 4 4 5 5 6 6 6 6 6 5 4 4 4 4 2 2 3 2 3 3 3 3 4 5 4 4 5 4 4 5 5 5 4 4 4 4 5 5 4 3 3 5 6 5 6 6 6 5 6 6 5 2 2 2 3 3 3 3 2 3 3 2 2 2 0 0 2 2 5 2 2 2 2 3 3 3 2 2 2 3
5 9 10 10 6 7 7 7 5 7 8 7 6 7 5 3 3 2 3 1 2 1 2 1 1 3 3 4 4 3 3 3 4 4 4 5 4 5 4 4 4 4 3 4 3 3 3 5 4 5 4 4 3 3 3 5 6 3 2 2 3 3 3 5 4 3 2 2 2 3 2 4 3 3 3 2 2 0 2 2 2 1 1 1 1
7 9 13 11 8 8 9 7 6 6 8 9 8 6 4 4 5 5 3 3 2 1 0 1 2 2 2 3 4 4 3 2 3 4 4 5 5 5 5 5 5 4 3 3 4 4 4 4 5 5 4 3 2 2 1 1 3 2 3 1 2 2 2 3 2 0 2 2 2 3 2 2 2 3 3 3 4 3 2 2 3 3 2 2 2
10 11 9 7 7 8 8 8 7 6 5 6 8 6 2 2 3 3 5 3 1 0 1 1 2 4 3 3 4 5 5 4 3 3 4 4 5 5 4 5 5 5 4 4 4 5 4 5 4 5 4 3 4 3 3 1 3 2 2 3 2 2 4 3 1 1 1 2 3 3 3 3 5 3 3 3 3 3 2 0 2 2 2 1 1
8 6 6 8 7 7 7 8 7 5 6 4 5 5 5 6 6 5 5 4 3 2 3 4 4 5 6 4 5 4 4 5 5 4 4 4 5 5 5 5 4 5 5 4 4 3 3 4 4 4 5 4 3 1 2 1 3 5 2 2 1 2 2 1 2 3 2 3 3 4 4 3 4 5 4 5 4 5 4 1 2 3 3 2 2
7 8 7 8 7 8 7 8 8 7 5 5 7 8 7 7 6 6 5 5 4 4 4 4 4 3 3 6 5 3 3 4 3 4 5 5 4 5 5 5 4 4 4 5 4 4 3 4 5 5 5 4 3 2 1 2 3 2 7 3 3 2 1 1 1 1 4 2 3 3 3 4 5 4 5 5 5 5 5 5 5 4 4 4 2
8 8 9 9 8 7 6 5 6 6 7 6 8 8 8 8 7 6 5 5 3 2 2 2 2 3 2 1 4 5 4 3 3 4 5 5 4 4 5 5 4 3 3 4 4 3 3 4 4 5 5 3 4 4 2 3 2 3 2 1 2 4 3 2 1 1 2 1 3 3 6 6 6 7 6 6 7 6 5 5 5 6 5 5 4
7 6 6 6 6 7 7 7 7 6 6 7 7 8 8 7 8 7 6 7 6 2 1 0 2 2 2 5 4 4 4 4 2 3 4 4 5 4 5 5 4 4 4 5 4 5 5 4 4 4 4 4 4 3 4 3 0 3 3 2 5 3 2 3 1 2 2 3 4 4 6 7 5 7 7 7 6 7 7 6 8 7 7 7 6
9 8 8 7 9 9 8 7 6 7 6 7 6 8 9 6 6 5 5 6 6 5 2 2 1 1 5 4 4 4 4 4 3 3 3 4 5 5 5 5 5 5 5 5 5 4 3 2 3 3 3 5 5 5 5 6 4 2 2 4 5 5 4 4 3 2 3 3 3 4 2 7 7 7 7 8 7 7 9 8 8 8 7 8 7
9 12 12 10 8 7 7 5 6 7 6 6 8 6 8 8 8 7 6 2 3 3 2 2 3 2 5 3 5 4 4 4 4 4 4 4 4 5 5 5 5 5 5 5 4 5 5 5 4 4 5 3 4 4 6 5 5 5 4 3 4 4 4 4 3 4 3 3 1 1 4 5 5 7 7 7 7 7 8 7 8 7 7 8 7
8 7 6 7 7 6 7 7 6 6 7 7 7 7 7 8 8 7 8 5 4 4 3 4 3 3 4 3 3 5 4 5 4 4 4 4 4 4 5 5 5 4 3 5 5 5 4 4 4 5 5 5 4 4 4 5 3 4 3 4 4 3 4 4 5 4 5 4 4 1 0 3 5 3 5 7 8 7 7 7 9 8 8 7 7
5 5 5 7 6 7 8 8 7 6 6 8 8 9 8 8 9 9 9 9 6 7 6 3 3 3 4 2 3 3 3 4 4 4 4 3 4 3 5 4 3 3 5 5 4 5 5 5 5 6 6 6 5 6 6 5 5 5 5 5 5 4 4 3 3 4 4 3 3 2 1 2 0 4 5 4 6 6 6 7 9 7 6 6 6
Wind_Direction
167 146 146 142 139 133 126 123 121 119 117 115 115 114 114 113 112 113 113 109 109 110 112 112 112 113 115 117 116 117 117 115 114 113 112 112 110 109 108 107 106 104 104 106 107 109 111 109 109 109 108 108 109 108 108 106 108 109 105 105 90 85 87 88 89 95 100 103 103 97 98 92 87 88 83 83 85 86 82 75 69 71 69 71 71
157 147 144 141 136 135 129 126 124 122 122 120 117 116 115 114 112 114 116 117 115 115 115 116 117 118 119 119 119 120 120 119 118 117 116 115 112 113 114 113 109 107 107 108 108 110 112 112 111 110 110 110 108 107 107 109 109 106 103 96 85 86 87 88 87 90 92 91 89 91 93 94 93 91 91 91 92 89 87 80 76 66 75 76 74
130 137 141 139 137 137 130 129 126 124 125 124 121 119 117 116 115 113 117 119 120 119 118 119 120 122 124 125 125 124 123 122 122 120 119 116 116 116 116 115 113 111 110 109 108 106 107 109 114 116 114 110 110 110 111 110 108 105 101 98 93 88 86 84 85 88 88 91 92 91 93 94 95 94 93 95 95 91 90 91 85 79 77 70 69
135 137 140 139 139 137 133 130 128 127 129 127 123 121 118 116 114 112 108 109 115 119 119 119 121 121 121 123 125 125 124 123 122 121 121 123 121 119 119 122 120 116 113 111 110 107 108 108 106 108 110 113 114 115 116 112 109 105 103 98 94 93 92 93 89 82 83 85 82 78 66 81 94 96 96 97 96 94 91 92 91 86 83 78 74
128 136 136 137 137 139 135 131 129 129 129 127 125 123 120 117 113 110 103 99 104 107 103 105 114 119 121 122 124 124 124 121 117 116 116 117 116 118 119 121 121 120 118 115 113 112 109 108 112 114 115 119 117 116 115 113 113 108 104 101 98 95 96 93 85 85 83 79 74 67 72 78 95 100 98 94 92 91 91 88 89 88 83 80 76
130 131 136 134 136 140 135 131 129 130 130 129 127 124 120 119 118 115 111 108 107 106 105 108 113 117 119 119 119 119 119 117 116 115 113 113 112 116 118 120 119 117 117 120 120 115 113 113 115 115 116 117 117 119 118 117 114 111 108 103 98 91 93 89 88 83 78 70 63 61 68 80 98 99 96 96 92 88 88 88 87 85 81 77 74
129 132 136 135 141 142 137 135 132 130 130 128 124 124 122 121 119 117 113 112 112 112 111 114 117 114 114 112 111 112 115 117 117 118 119 118 114 115 120 120 120 117 117 119 118 114 115 116 118 118 118 119 121 121 119 118 113 110 112 104 83 87 92 95 91 84 75 63 53 56 63 71 83 107 103 99 92 92 94 90 87 86 81 77 76
124 128 136 136 137 141 137 135 131 132 130 131 128 125 125 123 120 117 114 113 113 113 113 115 114 113 112 111 112 113 116 119 121 123 123 123 124 127 127 125 116 113 115 112 112 113 115 117 119 121 121 123 124 123 122 122 117 111 110 96 90 83 90 97 99 89 72 64 55 62 68 66 67 89 105 101 103 97 90 87 84 83 81 76 75
125 125 130 131 137 139 138 136 134 136 135 134 132 128 126 125 120 118 117 115 116 116 115 114 114 113 112 112 114 115 116 117 118 120 123 126 130 132 126 109 112 115 118 121 121 114 115 118 119 120 123 122 116 115 117 117 112 110 96 94 86 72 79 103 101 81 70 64 66 65 71 72 80 89 97 100 98 94 88 80 75 82 84 83 81
126 128 133 133 141 141 140 142 143 140 138 137 133 129 128 126 123 122 123 121 119 119 117 116 115 115 115 116 117 117 115 114 113 114 112 111 110 108 112 118 120 122 125 127 121 115 115 117 121 124 119 117 116 115 109 101 90 78 64 57 67 54 60 76 106 89 85 85 75 85 95 91 90 89 100 105 104 100 101 97 108 102 95 85 79
129 131 132 134 142 143 142 145 144 142 140 137 134 133 133 131 128 127 127 126 124 123 120 120 120 119 119 119 118 117 115 114 112 111 111 111 113 119 121 123 124 126 128 125 120 117 115 118 120 122 122 116 106 100 93 87 82 78 36 2 33 26 43 109 95 95 92 84 66 41 97 95 86 98 111 109 107 106 111 110 93 89 93 90 84
127 125 128 138 146 143 146 149 147 144 141 139 137 138 137 134 131 130 129 128 127 124 123 122 123 123 123 123 123 120 116 113 110 113 113 115 121 124 124 123 126 126 126 123 119 117 114 113 117 119 116 117 116 110 104 98 92 90 9 18 12 71 132 109 101 108 104 77 82 93 90 99 110 113 117 113 112 110 105 106 101 92 89 93 90
129 133 137 144 143 148 147 146 143 141 142 139 141 142 140 136 133 131 129 127 127 126 126 124 121 124 126 126 125 118 114 111 112 112 113 115 120 124 124 124 124 125 125 122 121 121 116 112 113 114 117 117 116 113 106 102 102 100 56 21 55 126 128 115 115 117 100 77 78 90 99 112 116 119 123 123 118 112 111 104 96 95 92 90 88
137 135 140 139 144 144 144 144 144 144 144 143 144 146 141 136 132 130 129 130 129 127 123 122 123 126 126 124 121 117 112 112 112 113 113 109 114 118 120 122 123 124 124 122 122 122 120 113 110 111 114 118 117 116 111 109 107 97 66 40 75 119 116 115 113 102 98 92 86 88 108 103 114 118 117 116 114 116 116 110 106 105 102 94 89
129 133 136 141 136 143 148 147 148 144 135 131 135 144 140 137 134 132 134 132 128 125 126 127 130 131 128 125 121 118 116 118 120 119 115 111 109 115 118 122 123 121 119 118 120 120 118 111 102 98 97 102 112 114 115 111 103 82 62 50 68 109 110 94 98 109 114 117 106 110 122 134 123 124 123 120 119 121 121 115 107 103 103 98 96
131 138 138 134 148 148 148 153 148 138 134 136 145 155 152 143 138 136 134 131 130 133 134 135 136 135 133 125 124 122 123 122 120 115 112 113 116 120 123 125 125 122 121 119 117 115 112 101 94 90 88 89 93 106 112 108 99 84 71 58 62 109 112 105 105 115 118 117 122 141 163 158 137 133 125 121 122 123 120 115 115 113 111 106 102
133 136 128 125 121 133 143 147 153 144 137 140 158 164 152 145 141 139 139 138 140 140 139 141 144 142 134 132 128 125 122 119 116 117 119 124 125 125 123 122 122 122 122 121 121 121 116 107 97 90 84 81 80 93 106 108 105 95 78 57 71 121 123 117 114 129 124 125 144 153 156 141 133 127 128 131 132 129 126 127 121 121 120 115 111
130 127 127 128 129 127 130 143 151 150 146 152 159 157 147 144 144 144 143 142 143 144 144 146 145 140 135 134 129 123 116 115 115 120 127 132 129 125 122 123 123 124 126 127 129 127 124 114 101 92 86 85 83 74 94 109 111 104 88 74 83 140 137 126 123 117 120 140 98 98 62 169 146 133 132 131 128 132 136 132 132 127 121 121 116
119 125 128 131 132 142 140 133 146 152 142 137 146 160 152 152 148 148 145 145 146 145 146 147 145 141 129 129 123 120 117 117 121 124 127 132 137 134 134 130 128 128 126 125 125 125 122 114 103 90 85 78 77 76 71 95 110 111 101 99 118 146 139 123 121 109 92 76 54 22 327 209 127 137 139 140 137 140 138 137 134 130 128 124 118
115 124 127 120 132 137 121 133 144 143 131 139 147 158 160 159 155 148 148 149 147 146 147 144 143 140 132 128 127 123 123 128 133 130 135 139 136 140 137 132 129 127 126 123 120 118 114 110 92 84 78 72 67 63 55 56 57 77 105 110 139 145 121 128 123 118 92 122 107 14 282 146 160 146 141 136 138 140 135 139 136 138 135 128 123
125 129 130 132 134 134 131 129 132 131 131 136 146 154 163 160 158 157 154 154 151 151 150 147 139 143 132 127 113 99 106 109 107 123 139 122 137 139 136 134 130 128 128 129 123 121 117 100 81 78 75 72 71 66 53 40 42 32 47 77 132 121 137 129 132 128 129 126 115 196 213 149 183 154 148 143 142 141 145 144 149 142 133 130 129
141 137 140 134 134 145 129 113 119 136 140 147 146 155 158 156 151 154 152 158 160 155 155 150 144 121 139 124 111 112 99 94 120 136 95 132 133 140 136 132 130 126 128 130 131 122 120 107 81 76 76 68 67 61 45 40 39 31 31 49 89 138 138 138 136 138 140 117 132 228 186 175 177 161 153 149 145 144 145 145 141 138 139 132 128
149 144 132 142 120 124 128 121 125 137 145 143 138 140 125 114 121 131 153 160 170 156 141 141 103 115 110 116 104 98 102 106 116 116 126 115 132 134 133 135 130 133 131 133 134 136 122 97 76 78 74 62 55 54 53 54 31 26 21 30 62 146 141 136 136 137 138 160 148 219 175 191 180 168 159 156 147 152 157 156 138 145 131 129 124
148 142 117 100 126 133 143 136 137 129 139 137 132 122 111 107 109 131 142 146 130 136 109 118 121 115 123 108 100 102 98 125 158 165 112 75 63 96 135 132 138 141 141 107 121 151 154 89 89 80 63 50 58 49 50 56 49 31 10 22 64 135 133 140 138 133 135 174 171 224 182 200 189 174 167 161 151 154 157 169 154 138 132 135 130
165 135 125 150 164 149 152 135 118 121 135 144 138 123 108 113 126 131 134 131 128 118 111 112 127 123 120 114 112 110 114 97 69 85 105 107 79 63 52 56 43 40 78 75 66 29 47 39 37 51 41 38 33 33 27 37 39 37 22 17 69 109 116 119 129 126 142 160 175 216 187 212 194 182 177 167 158 160 165 167 161 156 141 127 134
301 126 142 149 153 142 134 103 94 123 153 150 128 135 130 134 133 143 134 136 124 125 118 124 121 129 131 131 117 118 125 106 89 98 77 87 101 68 59 55 58 53 65 94 59 61 52 40 45 53 44 43 47 42 31 42 25 18 23 9 73 123 128 133 134 131 145 152 190 197 197 214 207 191 186 176 168 172 168 167 162 156 160 147 137
299 224 154 143 141 142 135 130 146 150 148 139 131 135 131 126 128 131 125 122 128 140 155 149 145 150 152 146 133 135 142 130 109 103 106 103 92 67 65 73 84 67 69 105 72 74 77 70 63 57 58 46 26 26 26 54 75 70 355 32 46 148 160 157 165 156 154 165 194 198 197 207 215 201 188 189 182 184 184 175 173 164 167 173 150
249 242 162 151 152 144 135 151 151 151 146 145 145 137 118 127 140 149 141 148 143 158 175 175 157 164 162 160 146 148 154 157 147 136 131 88 79 91 90 94 98 91 84 116 143 98 98 88 68 50 49 43 34 6 8 51 109 166 167 225 122 161 183 226 191 164 162 174 185 203 190 202 212 227 194 199 191 198 198 197 177 178 173 187 170
199 199 170 152 149 142 147 155 156 149 142 146 141 126 123 126 145 136 147 176 148 172 179 169 162 170 177 174 155 151 143 149 147 135 107 104 109 124 116 116 123 130 131 126 143 136 125 97 73 47 72 52 36 355 334 351 108 200 160 197 180 160 175 185 276 135 146 175 181 225 204 200 208 238 219 198 205 201 210 213 191 185 181 187 228
187 184 164 158 151 148 154 155 149 145 143 142 138 138 142 146 136 148 160 168 169 176 174 181 174 171 188 191 180 154 154 156 150 131 128 127 135 133 137 160 173 164 155 171 148 144 141 110 72 44 34 44 15 351 29 48 71 80 100 156 168 153 148 147 100 39 21 17 354 343 290 218 245 234 262 201 218 210 213 228 224 208 202 196 205
167 180 168 156 149 146 144 147 144 147 139 145 147 148 154 159 150 156 177 167 160 171 185 185 181 195 195 182 175 144 139 154 149 138 135 141 143 134 154 163 173 174 169 166 145 143 148 163 174 162 83 39 29 39 54 56 53 48 40 75 90 94 132 117 117 54 47 23 10 358 352 348 276 265 256 223 252 243 217 224 228 232 223 213 208
172 177 166 144 145 147 144 147 143 143 148 147 160 158 168 175 172 159 180 155 155 176 191 188 205 218 208 174 161 153 145 160 147 136 139 141 144 161 175 161 165 163 171 161 150 140 147 161 149 157 138 89 67 47 48 59 58 37 37 51 44 64 82 108 93 160 46 32 9 345 349 340 350 309 306 312 289 317 286 232 228 233 241 240 225
182 162 146 153 156 148 141 144 141 147 154 160 162 161 166 176 165 165 173 163 160 155 180 196 209 220 211 109 89 82 143 156 154 134 146 152 156 172 193 168 163 168 169 163 149 137 130 128 124 90 76 86 85 67 65 48 50 31 48 58 65 33 35 62 95 111 131 216 217 273 279 318 311 332 321 283 312 293 314 301 248 236 240 252 243
151 130 134 150 142 122 132 135 144 150 163 153 149 160 170 155 143 151 155 125 140 161 195 192 219 213 126 99 112 136 162 141 136 122 137 153 163 179 173 165 168 165 154 153 161 154 145 134 135 110 114 102 107 112 90 70 53 41 35 36 68 55 46 50 34 66 123 213 212 240 255 278 285 251 286 281 264 272 274 275 293 263 239 243 242
76 138 161 153 141 140 140 139 152 156 157 160 162 159 154 160 144 116 106 123 127 122 129 172 237 302 83 102 128 153 141 132 134 137 145 153 155 158 146 165 179 161 152 160 154 152 142 149 140 115 102 96 97 83 81 74 69 65 36 9 48 69 69 69 63 71 69 86 264 296 302 289 291 278 266 269 261 264 263 264 263 299 266 238 242
337 292 155 149 143 148 144 144 158 159 162 166 162 153 153 139 114 121 101 114 123 125 134 186 210 189 139 110 126 151 131 129 135 137 142 157 158 164 167 150 167 141 144 145 143 148 139 118 117 137 121 114 112 62 40 41 34 54 56 39 21 42 57 51 47 44 49 66 46 353 313 285 281 276 264 253 260 272 274 272 271 261 290 267 246
308 318 254 153 147 149 147 152 162 161 160 158 138 127 114 112 107 101 109 103 107 116 152 162 190 208 159 132 145 165 143 143 146 145 144 156 153 147 141 136 140 125 123 136 152 162 152 133 90 70 118 121 101 97 95 113 133 21 33 54 36 31 44 42 49 54 49 39 34 54 17 314 285 267 262 256 260 262 273 276 276 274 261 267 272
153 310 305 200 156 158 161 161 157 155 158 155 144 125 111 100 96 97 105 100 121 147 146 135 138 172 143 133 149 154 149 149 149 144 142 155 131 131 132 129 116 106 98 92 116 132 135 129 107 67 102 116 117 121 117 117 149 120 101 48 37 36 33 34 40 51 52 34 17 25 34 349 322 283 263 260 267 270 270 278 283 281 266 238 232
145 117 312 286 153 154 147 147 143 146 142 129 117 107 102 89 89 104 108 119 124 130 140 128 138 127 139 150 149 141 142 145 144 146 139 136 127 131 129 126 117 110 107 102 110 109 98 84 113 94 78 103 124 120 129 146 143 164 154 92 96 99 48 49 49 47 54 37 26 21 2 22 334 309 280 259 260 270 282 284 294 296 305 289 245
158 128 153 274 175 139 130 120 136 138 127 122 122 114 104 113 115 87 69 49 63 106 101 135 138 128 129 138 145 145 151 150 149 147 133 134 136 126 114 118 106 106 111 118 133 134 131 110 97 109 102 82 80 114 135 133 103 87 38 30 64 102 107 113 81 40 34 32 335 200 185 324 217 262 327 318 274 272 288 308 307 316 336 325 311
180 148 164 221 177 153 140 145 153 149 144 145 143 142 130 104 64 104 146 191 164 135 118 95 95 126 131 127 121 120 126 140 140 130 135 137 124 119 113 105 99 104 122 140 135 104 91 96 94 71 85 86 77 92 109 128 121 66 357 21 37 29 69 51 32 20 358 340 5 327 290 241 249 339 4 5 5 253 191 210 237 222 223 224 191
196 173 186 186 164 151 149 148 155 161 160 159 154 154 162 163 153 170 153 139 110 116 107 35 128 119 100 104 115 114 108 118 132 133 128 124 128 128 131 132 132 140 120 109 103 94 84 88 120 80 56 99 90 68 43 66 46 145 121 331 353 9 71 81 98 40 312 313 303 285 295 302 342 345 359 17 21 25 36 152 179 198 212 212 211
180 183 185 156 156 154 149 151 165 159 159 154 146 151 126 100 113 151 126 98 71 83 117 24 45 70 51 92 115 122 117 110 120 125 125 133 131 130 135 133 131 132 122 120 116 114 133 125 114 122 94 63 87 58 25 33 129 123 132 86 10 32 346 25 18 96 357 317 318 310 328 339 344 355 355 16 18 11 16 74 211 229 237 260 23
168 164 161 164 163 157 154 155 158 155 149 162 134 116 110 96 79 92 76 96 105 47 49 42 39 41 25 14 42 69 108 125 135 131 116 120 127 125 127 125 127 138 138 135 140 143 146 121 102 109 116 104 69 71 48 71 133 142 48 30 108 110 51 335 335 307 344 323 351 353 347 346 343 353 359 10 353 345 354 316 309 329 330 349 9
174 169 167 171 170 168 166 161 153 157 155 148 134 128 109 85 86 70 73 70 47 40 41 21 24 65 51 20 2 32 64 75 78 85 102 107 105 117 124 126 119 121 130 132 147 148 154 137 140 132 143 140 108 116 60 24 62 355 141 146 73 38 252 248 41 294 8 9 353 350 7 13 13 2 2 360 1 7 351 355 352 348 335 330 330
182 179 176 174 163 164 159 154 143 149 150 156 147 135 133 130 119 111 94 73 70 60 117 144 77 57 74 83 25 21 35 50 52 86 100 107 100 107 114 118 113 117 125 132 130 127 129 125 142 149 145 135 138 151 152 72 44 27 350 349 148 158 205 234 95 111 329 72 326 1 17 23 23 16 14 15 10 6 6 8 0 355 350 342 335
186 174 174 173 164 161 164 161 159 157 151 157 151 129 130 143 147 147 146 150 150 238 249 45 117 91 68 78 92 54 37 59 39 69 90 98 102 98 104 117 124 127 131 130 158 170 166 168 149 130 152 132 123 160 162 127 144 73 57 40 63 58 121 134 162 89 77 331 8 360 5 18 20 26 25 26 24 34 29 31 30 25 18 14 6
173 171 175 177 173 173 169 166 167 160 156 155 149 142 140 142 124 115 131 149 161 173 164 108 47 93 73 44 61 69 77 89 102 99 107 114 113 111 120 124 130 145 143 155 167 176 149 124 132 138 135 152 157 148 154 156 168 115 86 80 74 66 57 70 92 136 139 119 357 338 309 15 31 39 35 37 40 44 45 37 37 32 27 23 25
178 180 184 179 172 170 165 158 173 159 155 160 147 150 144 144 138 135 125 111 111 111 103 61 73 48 77 27 52 47 55 55 69 95 106 117 123 134 138 138 141 151 136 144 156 161 158 149 141 143 150 137 151 146 138 166 151 154 131 78 85 85 65 60 66 65 117 122 332 12 330 335 40 43 33 42 44 47 46 44 43 40 35 31 24
185 183 174 166 166 163 164 165 181 162 160 159 149 145 139 138 138 145 141 132 117 95 94 91 73 62 82 45 49 56 45 57 50 53 74 83 103 116 120 129 137 138 124 137 129 120 121 126 142 138 127 106 70 97 118 133 126 122 133 151 121 101 60 55 39 85 61 64 123 161 193 65 70 9 27 38 39 40 46 44 45 38 37 34 26
164 167 172 174 166 167 166 172 183 160 162 158 153 152 151 154 151 154 149 146 148 137 123 102 101 93 109 82 77 72 57 64 62 59 63 78 85 83 100 104 105 102 104 100 104 115 115 110 104 96 95 110 109 103 99 94 107 93 87 104 123 135 143 128 114 76 111 119 69 6 339 208 168 80 34 17 41 38 45 48 43 38 32 31 27